STARLINK-37635, 69029

Orbit data source: Space-Track

STARLINK-37635, 69029 is a payload satellite owned by SpaceX/Seattle (US) in SSO that was launched on Wed, 06 May 2026 UTC via an FALCON 9 launch vehicle from the Air Force Western Test Range (AFWTR). Payload-class satellites include a variety of spacecraft equipped with specific instruments for various scientific and technological missions. These include communications satellites like Starlink; space stations such as the ISS; scientific satellites like the Hubble; Earth observation satellites from companies like Planet Labs, Umbra, and HawkEye 360; GPS; miniature CubeSats for education and research; and military/defense satellites.

Loading next visibility...
Identifier
69029, 2026-101E
Orbit
SSO
Country
Flag of USUS
Related business
Manufacturer
SpaceX/Seattle
Mission
Operational Commercial Communications
Bus & Motor
STARLINK V2MO, Unknown motor
Mass
575 kg wet, ~530 kg dry
Launch date (UTC)
2026-05-06 (3 months ago)
Launch vehicle
FALCON 9
Launch site
Air Force Western Test Range (AFWTR)
Object type
Payload
Rocket body
Debris
Shape & HBR
Box + 2 Pan, 17.7 m
Radar Cross Section
36.964 m², Large (>1 m²)

Expand to show TLE details & history
Last TLE update: 1 day ago

TLE from 1 day ago
0 STARLINK-37635
1 69029U 26101E   26206.12331771  .00017651  00000-0  54800-3 0  9997
2 69029  97.2814  60.3929 0005051  51.4451 308.7243 15.33422365 12384
Epoch: 2026-07-25T02:57Z
TLE epoch observation values (Epoch: 2026-07-25T02:57:34.650Z)
Latitude
-0.00007°
Longitude
73.15842°
Altitude
466.561 km
Speed
7.634 km/s
True Right ascension
04h 01m 34s
True Declination
0° 00' 00"
Sunlit
Object was in daylight at epoch
Visualization orbit readout
Latitude
Unknown
Longitude
Unknown
Altitude
Unknown
Speed
Unknown
Apparent Right ascension
Unknown
Apparent Declination
Unknown
Sunlit
N/A
Visualization observer readout
Local Sidereal Time
16:19:12
Azimuth
Unknown
Elevation
Unknown
Doppler factor
Unknown
Orbital elements
Apogee altitude
466.008 km
Perigee altitude
459.098 km
Semi-major axis
6,840.69 km
Eccentricity
0.00051
Inclination
97.2814°
RAAN
60.3929°
Arg. of periapsis
51.4451°
True anomaly
308.67913°
Mean anomaly
308.7243°
Eccentric anomaly
308.70171°
Mean motion
3.83613 °/min
Orbital period
93.84 mins
BSTAR
0.000548
Loading maneuver chart data...
Computing Atmospheric mass density...
Loading historical data...
Loading historical data...
Loading historical data...
Loading historical data...
Loading historical data...
Loading historical data...
Loading historical data...

Documentation

Showing up to 5 results
|